Weather History for Sulphur, LA

Change the Weather History Date:

Friday, July 19, 2013

  Actual Average (KLCH) Record (KLCH)
Temperature  
Mean Temperature 82 °F 83 °F  
Max Temperature 90 °F 91 °F 100 °F (1951)
Min Temperature 73 °F 75 °F 67 °F (1976)
Degree Days  
Heating Degree Days 0 0  
Month to date heating degree days 0  
Since 1 June heating degree days 0  
Since 1 July heating degree days 0  
Cooling Degree Days 16 18  
Month to date cooling degree days 339  
Year to date cooling degree days 1357  
Since 1 June cooling degree days 819  
Growing Degree Days 32 (Base 50)    
Moisture  
Dew Point 72 °F    
Average Humidity 84    
Maximum Humidity 98    
Minimum Humidity 52    
Precipitation  
Precipitation 0.32 in 0.17 in 3.63 in (1969)
Month to date precipitation 3.58  
Year to date precipitation 31.31  
Snow  
Snow 0.00 in 0.00 in 0.00 in ()
Month to date snowfall 0.0  
Since 1 June snowfall 0.0  
Since 1 July snowfall 0.0  
Snow Depth -    
Sea Level Pressure  
Sea Level Pressure 30.02 in    
Wind  
Wind Speed 3 mph (North)    
Max Wind Speed 13 mph    
Max Gust Speed 16 mph    
Visibility 10 miles    
Events Rain , Thunderstorm    
T = Trace of Precipitation, MM = Missing Value Source: NWS Daily Summary

Daily Weather History Graph

Daily Weather History Graph

Search for Another Location

Airport:

Trip Planner

Search our weather history database for the weather conditions in past years. The results will help you decide how hot, cold, wet, or windy it might be!

Date:

Astronomy

Jul. 19, 2013 Rise Set
Actual Time 6:24 AM CDT 8:14 PM CDT
Civil Twilight 5:58 AM CDT 8:41 PM CDT
Nautical Twilight 5:25 AM CDT 9:13 PM CDT
Astronomical Twilight 4:51 AM CDT 9:47 PM CDT
Moon 5:18 PM CDT (7/19) 3:05 AM CDT (7/19)
Length of Visible Light 14h 43m
Length of Day
13h 49m
Waxing Gibbous, 87% of the Moon is Illuminated
Jul 19
Waxing Gibbous
Jul 22
Full
Jul 29
Last Quarter
Aug 6
New
Aug 14
First Quarter

Hourly Weather History & Observations

Time (CDT) Temp. Heat Index Dew Point Humidity Pressure Visibility Wind Dir Wind Speed Gust Speed Precip Events Conditions
12:15 AM 75.6 °F - 74.5 °F 96% 30.06 in 10.0 mi East 4.6 mph - N/A   Clear
12:35 AM 76.1 °F - 74.3 °F 94% 30.06 in 10.0 mi NE 5.8 mph - N/A   Clear
12:55 AM 76.1 °F - 73.4 °F 91% 30.06 in 10.0 mi NE 3.5 mph - N/A   Clear
1:15 AM 76.1 °F - 73.2 °F 91% 30.05 in 10.0 mi Calm Calm - N/A   Clear
1:35 AM 75.7 °F - 72.7 °F 90% 30.06 in 10.0 mi Calm Calm - N/A   Clear
1:55 AM 75.7 °F - 72.5 °F 90% 30.05 in 10.0 mi NE 4.6 mph - N/A   Clear
2:15 AM 75.6 °F - 72.3 °F 90% 30.05 in 10.0 mi Calm Calm - N/A   Clear
2:35 AM 75.4 °F - 72.1 °F 90% 30.04 in 10.0 mi Calm Calm - N/A   Clear
2:55 AM 74.5 °F - 72.7 °F 94% 30.05 in 10.0 mi Calm Calm - N/A   Clear
3:15 AM 74.3 °F - 72.9 °F 95% 30.04 in 10.0 mi Calm Calm - N/A   Clear
3:35 AM 74.1 °F - 73.0 °F 96% 30.04 in 10.0 mi WNW 3.5 mph - N/A   Clear
3:55 AM 73.6 °F - 72.7 °F 97% 30.04 in 7.0 mi Calm Calm - N/A   Clear
4:15 AM 73.4 °F - 72.5 °F 97% 30.03 in 10.0 mi Calm Calm - N/A   Clear
4:35 AM 73.4 °F - 72.5 °F 97% 30.03 in 10.0 mi Calm Calm - N/A   Clear
4:55 AM 73.0 °F - 72.3 °F 98% 30.04 in 7.0 mi Calm Calm - N/A   Scattered Clouds
5:15 AM 73.2 °F - 72.3 °F 97% 30.03 in 10.0 mi North 3.5 mph - N/A   Scattered Clouds
5:35 AM 73.0 °F - 72.1 °F 97% 30.03 in 10.0 mi Calm Calm - N/A   Clear
5:55 AM 73.4 °F - 72.5 °F 97% 30.03 in 10.0 mi NNW 3.5 mph - N/A   Clear
6:15 AM 73.4 °F - 72.5 °F 97% 30.04 in 10.0 mi Calm Calm - N/A   Clear
6:35 AM 73.4 °F - 72.3 °F 96% 30.04 in 10.0 mi North 3.5 mph - N/A   Scattered Clouds
6:55 AM 73.8 °F - 72.5 °F 96% 30.05 in 10.0 mi Calm Calm - N/A   Clear
7:15 AM 74.7 °F - 72.7 °F 94% 30.05 in 10.0 mi NNE 3.5 mph - N/A   Clear
7:35 AM 76.6 °F - 73.9 °F 91% 30.05 in 10.0 mi NE 3.5 mph - N/A   Clear
7:55 AM 78.8 °F - 73.8 °F 84% 30.06 in 10.0 mi NE 3.5 mph - N/A   Clear
8:15 AM 79.7 °F - 73.9 °F 82% 30.07 in 10.0 mi Calm Calm - N/A   Clear
8:35 AM 81.1 °F 86.4 °F 73.6 °F 78% 30.07 in 10.0 mi ENE 4.6 mph - N/A   Clear
8:55 AM 82.2 °F 88.0 °F 73.6 °F 75% 30.07 in 10.0 mi ENE 5.8 mph - N/A   Clear
9:15 AM 82.2 °F 87.8 °F 73.2 °F 74% 30.08 in 10.0 mi Calm Calm - N/A   Clear
9:35 AM 83.3 °F 88.4 °F 71.6 °F 68% 30.07 in 10.0 mi Calm Calm - N/A   Clear
9:55 AM 84.6 °F 89.7 °F 71.2 °F 64% 30.07 in 10.0 mi Calm Calm - N/A   Clear
10:15 AM 85.3 °F 90.4 °F 70.7 °F 62% 30.07 in 10.0 mi Calm Calm - N/A   Clear
10:35 AM 86.5 °F 91.4 °F 70.3 °F 58% 30.06 in 10.0 mi Calm Calm - N/A   Clear
10:55 AM 87.6 °F 92.7 °F 70.0 °F 56% 30.06 in 10.0 mi North 4.6 mph - N/A   Clear
11:15 AM 88.7 °F 93.0 °F 68.9 °F 52% 30.06 in 10.0 mi NW 5.8 mph - N/A   Scattered Clouds
11:35 AM 88.9 °F 94.7 °F 70.9 °F 55% 30.06 in 10.0 mi NNW 6.9 mph - N/A   Scattered Clouds
11:55 AM 89.4 °F 96.3 °F 71.6 °F 56% 30.05 in 10.0 mi North 4.6 mph - N/A   Mostly Cloudy
12:15 PM 90.3 °F 97.2 °F 71.8 °F 54% 30.05 in 10.0 mi NNW 6.9 mph - N/A   Scattered Clouds
12:35 PM 88.0 °F 92.9 °F 70.2 °F 55% 30.04 in 10.0 mi North 4.6 mph - N/A   Mostly Cloudy
12:55 PM 89.2 °F 94.5 °F 70.3 °F 53% 30.04 in 10.0 mi North 8.1 mph - N/A   Mostly Cloudy
1:15 PM 88.3 °F 94.1 °F 70.7 °F 56% 30.03 in 10.0 mi North 5.8 mph - N/A   Mostly Cloudy
1:35 PM 89.1 °F 94.1 °F 69.8 °F 53% 30.02 in 10.0 mi NNE 3.5 mph - N/A Thunderstorm Overcast
1:55 PM 89.2 °F 94.9 °F 70.7 °F 54% 30.01 in 10.0 mi NNE 5.8 mph - N/A Thunderstorm Overcast
2:15 PM 85.6 °F 91.1 °F 71.4 °F 62% 30.01 in 10.0 mi ESE 12.7 mph 16.1 mph N/A Thunderstorm Thunderstorm
2:35 PM 82.6 °F 86.4 °F 69.6 °F 65% 30.01 in 10.0 mi East 8.1 mph - 0.01 in Rain , Thunderstorm Thunderstorms and Rain
2:55 PM 83.5 °F 87.2 °F 69.4 °F 62% 30.00 in 10.0 mi NE 5.8 mph - 0.01 in Thunderstorm Thunderstorm
3:15 PM 81.7 °F 85.2 °F 69.8 °F 67% 30.02 in 10.0 mi WNW 9.2 mph - N/A Thunderstorm Thunderstorm
3:35 PM 75.7 °F - 72.3 °F 89% 30.02 in 2.0 mi WNW 10.4 mph - 0.16 in Rain , Thunderstorm Heavy Thunderstorms and Rain
3:55 PM 74.8 °F - 73.0 °F 94% 30.02 in 5.0 mi West 6.9 mph - 0.23 in Rain , Thunderstorm Light Thunderstorms and Rain
4:15 PM 74.8 °F - 73.0 °F 94% 30.02 in 5.0 mi West 11.5 mph - 0.02 in Rain , Thunderstorm Light Thunderstorms and Rain
4:35 PM 73.8 °F - 72.1 °F 95% 29.99 in 7.0 mi West 10.4 mph - 0.03 in Rain , Thunderstorm Rain
4:55 PM 73.8 °F - 72.0 °F 94% 30.00 in 10.0 mi West 9.2 mph - 0.04 in Rain Rain
5:15 PM 73.8 °F - 71.1 °F 91% 29.98 in 10.0 mi WNW 5.8 mph - N/A   Clear
5:35 PM 73.6 °F - 71.6 °F 93% 29.98 in 10.0 mi NW 6.9 mph - N/A Thunderstorm Clear
5:55 PM 73.6 °F - 71.8 °F 94% 29.97 in 10.0 mi NW 3.5 mph - N/A   Clear
6:15 PM 73.8 °F - 72.0 °F 94% 29.97 in 10.0 mi Calm Calm - N/A Rain Light Rain
6:35 PM 74.1 °F - 72.3 °F 94% 29.99 in 10.0 mi NNE 5.8 mph - N/A Rain Light Rain
6:55 PM 74.3 °F - 72.5 °F 94% 29.99 in 10.0 mi North 3.5 mph - N/A   Clear
7:15 PM 73.8 °F - 72.0 °F 94% 29.98 in 10.0 mi North 4.6 mph - N/A   Clear
7:35 PM 73.8 °F - 72.1 °F 95% 29.98 in 10.0 mi NNW 3.5 mph - N/A Rain Light Rain
7:55 PM 73.9 °F - 72.7 °F 96% 29.98 in 5.0 mi Calm Calm - 0.02 in Rain Light Rain
8:15 PM 74.1 °F - 72.7 °F 95% 29.98 in 10.0 mi North 3.5 mph - 0.02 in Rain Light Rain
8:35 PM 74.3 °F - 72.5 °F 94% 29.97 in 10.0 mi North 5.8 mph - 0.02 in Rain Light Rain
8:55 PM 74.3 °F - 72.5 °F 94% 29.97 in 10.0 mi Calm Calm - 0.02 in   Clear
9:15 PM 74.5 °F - 73.2 °F 96% 29.97 in 10.0 mi Calm Calm - N/A   Clear
9:35 PM 74.5 °F - 73.2 °F 96% 29.98 in 10.0 mi Calm Calm - N/A   Clear
9:55 PM 74.5 °F - 73.4 °F 96% 29.98 in 10.0 mi Calm Calm - N/A   Clear
10:15 PM 74.3 °F - 73.2 °F 96% 29.98 in 7.0 mi WSW 4.6 mph - N/A   Clear
10:35 PM 73.9 °F - 72.9 °F 96% 29.99 in 10.0 mi NE 6.9 mph - N/A   Clear
10:55 PM 73.8 °F - 72.7 °F 96% 29.99 in 10.0 mi NE 4.6 mph - N/A   Clear
11:15 PM 74.1 °F - 73.2 °F 97% 30.00 in 10.0 mi Calm Calm - N/A   Clear
11:35 PM 73.9 °F - 73.0 °F 97% 30.00 in 7.0 mi Calm Calm - N/A   Clear
11:55 PM 74.3 °F - 73.4 °F 97% 30.00 in 10.0 mi Calm Calm - N/A   Clear